Location: D�pe
(52.6057°N, 8.1808°E)
Time: 14:45:42
(UTC+00:00)

USA 306 - Pass Details

Date: 29 October 2020
Orbit: 569 x 577 km, 54.0° (Epoch: 22 November)

Event Time Altitude Azimuth Distance (km) Brightness Sun altitude
Rises 17:55:35 0° 290° (WNW) 2,788 7.8 -17.7°
Reaches altitude 10° 17:57:56 10° 282° (WNW) 1,885 6.8 -18.0°
Maximum altitude 18:01:55 38° 214° (SW) 877 4.1 -18.6°
Enters shadow 18:04:26 20° 156° (SSE) 1,366 4.6 -19.0°
